Location: Duhort
(43.7240°N, 0.3226°W)
Time: 01:57:06
(UTC+00:00)

Daily predictions for brighter satellites

Satellite Brightness Start Highest point End
(mag) Time Altitude Azimuth Time Altitude Azimuth Time Altitude Azimuth
Cosmos 2082 Rocket 3.8 03:49:32 30° ESE 03:49:32 30° ESE 03:54:19 10° NE
COSMOS 2455 4.2 03:58:10 33° NE 03:58:23 33° NE 04:03:46 10° ESE
Cosmos 1980 Rocket 3.0 04:14:14 45° ESE 04:14:14 45° ESE 04:18:11 10° SE
Cosmos 2279 Rocket 4.3 04:14:28 63° SE 04:14:28 63° SE 04:19:53 10° SSE
Cosmos 2098 Rocket 4.3 04:15:57 56° ESE 04:15:57 56° ESE 04:21:10 10° SSE
Tiangong 1.5 04:27:21 11° ESE 04:27:21 11° ESE 04:27:27 10° ESE
Cosmos 2333 Rocket 4.3 04:33:57 12° N 04:37:42 21° NE 04:42:01 10° E
Cosmos 2142 Rocket 4.3 04:47:06 35° NNW 04:50:00 83° W 04:56:11 10° S
Helios 1A Rocket 4.5 04:52:14 10° SE 04:55:02 25° ENE 04:55:46 23° NE
USA 234 4.4 04:51:05 10° NE 04:56:26 28° N 04:57:47 26° NNW
SL-4 R/B 4.0 05:03:15 15° NE 05:03:15 15° NE 05:04:10 10° NE
Cosmos 2322 Rocket 4.1 05:01:58 10° N 05:06:40 25° NE 05:11:19 10° ESE
Meteor 2-3 Rocket 4.2 05:03:48 10° S 05:09:26 61° E 05:15:03 10° NNE
Cosmos 1726 Rocket 4.0 05:08:06 21° N 05:10:56 60° E 05:15:05 10° SSE
Cosmos 489 Rocket 4.4 05:07:02 10° SSW 05:13:22 88° ESE 05:19:40 10° NNE
Nadezhda 4 Rocket 3.9 05:08:05 10° S 05:14:24 80° W 05:20:43 10° N
Cosmos 1428 Rocket 4.4 05:09:18 10° S 05:15:31 88° E 05:21:50 10° N
CZ-4 R/B 3.7 05:12:11 10° NNE 05:16:51 84° ESE 05:21:27 10° SSW
NOSS 2-1 (D) 3.2 05:17:47 68° NNW 05:18:16 87° NE 05:23:07 10° SE
Cosmos 2237 4.2 05:15:45 27° NNW 05:19:03 85° ENE 05:24:45 10° SSE
USA 59 Rocket -0.3 05:20:26 66° WNW 05:20:57 80° SW 05:25:55 10° SSE
Cosmos 841 Rocket 3.3 05:16:11 10° SSW 05:21:24 76° WNW 05:26:40 10° NNE
CZ-3 R/B 4.3 05:14:25 20° WSW 05:21:46 25° SW 05:29:09 10° S
COSMOS 2406 3.1 05:16:14 10° SSW 05:21:54 88° ESE 05:27:37 10° NNE
NOSS 2-1 (E) 3.3 05:25:12 51° NNW 05:26:08 82° NE 05:30:56 10° SE
Cosmos 1933 3.6 05:27:10 45° SW 05:27:10 45° SW 05:30:10 10° S
NOSS 3-1 (C) 4.1 05:21:26 23° NW 05:26:30 86° NE 05:35:31 10° SE
Cosmos 1892 Rocket 3.6 05:24:08 10° S 05:28:28 79° E 05:32:52 10° N
Cosmos 2195 Rocket 4.5 05:22:35 10° S 05:28:50 89° E 05:35:12 10° N
ATLAS CENTAUR Rocket 4.5 05:27:48 10° SSW 05:32:06 24° SSE 05:42:48 10° ESE
Cosmos 2082 Rocket 2.5 05:31:29 32° WSW 05:33:22 42° WNW 05:38:42 10° NNE
SL-16 R/B 2.6 05:28:40 14° NNW 05:33:37 64° ENE 05:39:13 10° SE
IRS-1D 3.6 05:39:10 10° N 05:43:58 49° WNW 05:48:50 10° SW
COSMOS 2455 3.1 05:41:19 26° NW 05:44:30 49° WSW 05:50:14 10° S
Cosmos 1898 Rocket 3.8 05:42:41 26° NW 05:45:14 45° WSW 05:50:13 10° S
NOSS 2-1 (C) 3.6 05:44:49 36° WNW 05:46:08 55° SW 05:50:58 10° SSE
Meteor 2-20 4.4 05:40:44 10° N 05:46:52 84° W 05:52:56 10° S
Cosmos-2242 3.0 05:51:04 10° N 05:55:20 80° E 05:59:31 10° S
COSMO-SKYMED 1 2.6 05:51:54 10° S 05:55:53 48° W 05:59:10 15° NNW
Cosmos 1980 Rocket 3.5 05:56:03 19° W 05:56:03 19° W 05:59:48 10° SW
Cosmos 2278 3.7 05:51:04 10° NNW 05:56:46 83° ENE 06:02:24 10° SSE
SKYMED 2 4.3 05:55:12 10° SSW 05:59:04 31° W 06:01:14 20° NW
Tiangong -0.5 05:59:42 19° WSW 06:00:58 24° SSW 06:03:40 10° SE
Cosmos 2369 4.5 05:58:13 21° WNW 06:00:59 31° WSW 06:05:54 10° SSW
Cosmos 1627 Rocket 4.4 05:55:20 10° SSW 06:01:23 65° W 06:07:29 10° N
Cosmos 2058 Rocket 3.0 05:58:03 10° N 06:02:30 78° W 06:06:53 10° S
Cosmos 1484 Rocket 2.3 05:59:10 10° N 06:02:35 72° WNW 06:05:56 10° SSW
Meteor 2-2 Rocket 4.2 06:00:06 10° NNW 06:05:49 81° W 06:11:36 10° S
Okean 1 2.9 06:04:38 10° N 06:08:13 85° WSW 06:11:45 10° S
Meteor 2-20 Rocket 4.2 06:03:16 10° N 06:09:02 80° W 06:14:43 10° S
Cosmos 1937 Rocket 4.0 06:06:02 15° NW 06:09:46 37° WSW 06:14:26 10° SSW
ATLAS 2AS CENTAUR R/B 4.2 06:06:50 10° S 06:13:20 40° ESE 06:19:43 10° NE
ARIANE 5 R/B 3.9 06:09:48 10° NNE 06:14:48 44° E 06:19:45 10° S
Cosmos 2285 Rocket 4.4 06:08:29 10° NNW 06:14:51 67° ENE 06:21:13 10° SSE
IRIDIUM 104 4.4 06:11:35 10° S 06:16:48 86° E 06:22:03 10° N
Cosmos 2333 Rocket 2.2 06:16:50 10° NNW 06:22:36 73° WSW 06:28:18 10° SSE
IRIDIUM 114 4.3 06:20:43 10° S 06:25:56 78° W 06:31:11 10° N
SMAP 3.2 06:21:20 10° NNE 06:26:01 80° ESE 06:30:40 10° S
Helios 1A Rocket 4.0 06:25:14 10° SW 06:27:36 18° W 06:29:20 13° WNW
Cosmos 2360 Rocket 2.2 06:23:27 10° NNW 06:29:07 87° ENE 06:34:44 10° SSE
Cosmos 2026 Rocket 4.4 06:25:29 10° SW 06:31:01 37° WNW 06:36:37 10° N
Landsat 7 4.1 06:27:18 10° NNE 06:31:59 74° ESE 06:36:37 10° S
Cosmos 1814 Rocket 4.0 06:27:24 10° SSW 06:32:36 73° WNW 06:37:53 10° NNE
NOSS 3-1 (A) 4.2 06:25:44 10° NW 06:33:07 80° SW 06:42:11 10° SSE
CBERS-1 4.1 06:29:42 10° N 06:34:42 57° WNW 06:39:39 10° SSW
IRIDIUM 103 4.3 06:29:57 10° SSW 06:35:06 65° W 06:40:19 10° N
IGS 5A 3.8 06:31:43 10° N 06:35:28 39° WNW 06:39:12 10° SW
BREEZE-M DEB (TANK) 2.1 06:34:37 13° NW 06:36:06 49° NNE 06:38:44 10° ESE
USA 234 4.2 06:32:29 10° E 06:38:20 36° NNE 06:44:10 10° NW
Cosmos 1758 Rocket 3.5 06:34:37 10° SSW 06:39:01 67° W 06:43:25 10° N
SL-4 R/B 2.5 06:37:00 10° NW 06:39:58 32° NNE 06:42:51 10° E
Cosmos 1733 2.1 06:38:18 10° SW 06:39:59 30° W 06:41:41 10° NNW
Cosmos 1743 2.2 06:36:56 10° S 06:40:10 83° W 06:43:26 10° N
IRS-1C 4.4 06:38:40 10° NNE 06:44:00 77° ESE 06:49:19 10° S
BREEZE-M DEB (TANK) 3.7 06:42:47 10° WNW 06:45:29 41° N 06:52:12 10° ENE
Meteor 2-6 Rocket 4.4 06:40:11 10° NNW 06:46:07 68° W 06:51:59 10° S
Thor Agena Rocket 3.5 06:42:12 10° N 06:47:12 63° WNW 06:52:09 10° SSW
Cosmos 2219 Rocket 2.4 06:42:18 10° NNW 06:47:58 75° ENE 06:53:36 10° SSE
Cosmos 2322 Rocket 2.4 06:45:29 10° NNW 06:51:03 56° WSW 06:56:34 10° S
S3M 4.2 06:45:45 10° N 06:51:59 76° E 06:58:05 10° SSE
